Regional Weather Roundup
Issued by NWS

Home | Current Version | Previous Version | Graphics & Text | Print | Product List | Glossary On
Versions: 1 2 3 4 5 6 7 8 9 10 11 12 13 14 15 16 17 18 19 20 21 22 23 24 25 26 27 28 29 30 31 32 33 34 35 36 37 38 39 40 41 42 43 44 45 46 47 48 49 50
000
ASUS45 KCYS 240210
RWRWY

WYOMING REGIONAL WEATHER ROUNDUP
NATIONAL WEATHER SERVICE CHEYENNE WY
800 PM MDT TUE MAY 23 2017

NOTE:  "FAIR" INDICATES FEW OR NO CLOUDS BELOW 12,000 FEET
WITH NO SIGNIFICANT WEATHER AND/OR OBSTRUCTIONS TO VISIBILITY.

WYZ001-240300-
YELLOWSTONE NATIONAL PARK

CITY           SKY/WX    TMP DP  RH WIND       PRES   REMARKS
LK YELLOWSTONE   N/A     56  35  45 CALM      30.17F
W YELLOWSTONE  NOT AVBL

$$
WYZ002>013-054>058-071-098>099-240300-
NORTHERN WYOMING

CITY           SKY/WX    TMP DP  RH WIND       PRES   REMARKS
JACKSON        CLEAR     64  34  32 SW6       30.11F
CODY           FAIR      65  35  33 SE10      29.98F
GREYBULL       FAIR      70  29  21 S8        29.93F
WORLAND        FAIR      59  43  55 S8        29.97F
SHERIDAN       FAIR      60  40  47 SE6       29.97F
BUFFALO        FAIR      57  36  45 S9        30.03F
GILLETTE       FAIR      56  47  71 SE5       30.02F
HULETT         FAIR      55  39  54 CALM      30.04F
NEWCASTLE      FAIR      55  32  41 N5        30.04F

$$
WYZ014>020-022>026-101>103-240300-
CENTRAL WYOMING

CITY           SKY/WX    TMP DP  RH WIND       PRES   REMARKS
BIG PINEY      FAIR      63  37  38 NW14      30.14F
PINEDALE       FAIR      63  32  31 NW10      30.13F
DUBOIS         NOT AVBL
LANDER         FAIR      61  35  37 SE5       30.03F
RIVERTON       FAIR      63  31  30 SE6       30.04F
CASPER         FAIR      56  40  55 S6        30.06F
DOUGLAS        FAIR      54  38  54 CALM      30.07F

$$
WYZ021-027>030-104>119-240300-
SOUTHERN WYOMING

CITY           SKY/WX    TMP DP  RH WIND       PRES   REMARKS
EVANSTON       FAIR      63  38  39 W14       30.19S
ROCK SPRINGS   FAIR      64  33  31 W9        30.12F
RAWLINS        FAIR      58  23  26 NW6       30.14S
SARATOGA       FAIR      55  27  33 N6        30.16S
LARAMIE        FAIR      49  29  46 NW9       30.14S
CHEYENNE       FAIR      51  31  46 N9        30.11R
TORRINGTON     FAIR      56  32  40 N7        30.04S
PINE BLUFFS    FAIR      50  32  50 NW6       30.08S

$$



USA.gov is the U.S. government's official web portal to all federal, state and local government web resources and services.